^^
Anthem North Phoenix Station Historical Data
 
Daily Summary for June 18, 2019 Units:  English    Metric   Both
Daily Weekly Monthly Yearly Custom
  Current: High: Low: Average:
Temperature: 96.3 °F 99 °F 72 °F 86.2 °F
Dew Point: 14.4 °F 35.7 °F 3.1 °F 29.6 °F
Humidity: 5% 24% 3% 14%
Wind Speed: 0.4mph 8.1mph 0mph 1.7mph
Wind Gust: 1.2mph 12mph - -
WindSE - - SSE
Pressure: 29.84 in 29.84 in 29.84 in -
Precipitation: 0 in      
Historical Graphs
 
 
Tabular Data for June 18, 2019
Time Temperature Dew Point Pressure Wind Wind Speed Wind Gust Humidity Rainfall Rate (Hourly)
00:04 82.1 °F 29.8 °F 29.84 in Calm     15% 0 in
00:09 81.7 °F 29.5 °F 29.84 in Calm     15% 0 in
00:14 81.6 °F 29.4 °F 29.84 in Calm     15% 0 in
00:19 81.2 °F 30.7 °F 29.84 in Calm     16% 0 in
00:24 80.4 °F 30.1 °F 29.84 in Calm     16% 0 in
00:29 79.8 °F 31.1 °F 29.84 in Calm     17% 0 in
00:34 79.7 °F 31 °F 29.84 in Calm     17% 0 in
00:39 79.5 °F 30.8 °F 29.84 in Calm   1 mph 17% 0 in
00:44 79.1 °F 30.5 °F 29.84 in Calm     17% 0 in
00:49 78.6 °F 31.5 °F 29.84 in Calm     18% 0 in
00:54 78.4 °F 31.4 °F 29.84 in Calm     18% 0 in
00:59 78.3 °F 31.3 °F 29.84 in ESE 1 mph 1.2 mph 18% 0 in
01:04 77.9 °F 31 °F 29.84 in Calm     18% 0 in
01:09 77.7 °F 32.1 °F 29.84 in Calm     19% 0 in
01:14 77.3 °F 33.1 °F 29.84 in Calm     20% 0 in
01:19 77.1 °F 31.6 °F 29.84 in Calm     19% 0 in
01:24 77.1 °F 31.6 °F 29.84 in Calm   1.2 mph 19% 0 in
01:29 77.5 °F 30.6 °F 29.84 in Calm     18% 0 in
01:34 77.9 °F 31 °F 29.84 in Calm     18% 0 in
01:39 77.4 °F 33.2 °F 29.84 in Calm     20% 0 in
01:44 76.9 °F 32.8 °F 29.84 in Calm     20% 0 in
01:49 76.5 °F 33.6 °F 29.84 in Calm     21% 0 in
01:54 75.8 °F 31.8 °F 29.84 in Calm   1 mph 20% 0 in
01:59 75.8 °F 31.8 °F 29.84 in Calm     20% 0 in
02:04 75.6 °F 32.9 °F 29.84 in Calm     21% 0 in
02:09 75.7 °F 33 °F 29.84 in Calm     21% 0 in
02:14 75.5 °F 34 °F 29.84 in Calm     22% 0 in
02:19 75 °F 33.6 °F 29.84 in Calm     22% 0 in
02:24 74.3 °F 35.2 °F 29.84 in Calm     24% 0 in
02:29 74.1 °F 32.8 °F 29.84 in Calm     22% 0 in
02:34 74.1 °F 32.8 °F 29.84 in Calm     22% 0 in
02:39 74.3 °F 31.8 °F 29.84 in Calm     21% 0 in
02:44 74.8 °F 31 °F 29.84 in SE 0.5 mph 1.2 mph 20% 0 in
02:49 75.8 °F 30.6 °F 29.84 in Calm   1.2 mph 19% 0 in
02:54 76.5 °F 31.1 °F 29.84 in Calm   1.2 mph 19% 0 in
02:59 77.1 °F 31.6 °F 29.84 in Calm   1.2 mph 19% 0 in
03:04 77.2 °F 30.4 °F 29.84 in Calm   1.2 mph 18% 0 in
03:09 77.2 °F 30.4 °F 29.84 in Calm   1.2 mph 18% 0 in
03:14 77.1 °F 30.3 °F 29.84 in SE 0.1 mph 1.2 mph 18% 0 in
03:19 77 °F 31.6 °F 29.84 in SE 0.1 mph 1.2 mph 19% 0 in
03:24 76.8 °F 31.4 °F 29.84 in Calm     19% 0 in
03:29 77 °F 31.6 °F 29.84 in SE 0.9 mph 1.2 mph 19% 0 in
03:34 77.1 °F 31.6 °F 29.84 in Calm     19% 0 in
03:39 76.8 °F 31.4 °F 29.84 in Calm     19% 0 in
03:44 76.5 °F 31.1 °F 29.84 in Calm     19% 0 in
03:49 76.4 °F 31.1 °F 29.84 in Calm   1.2 mph 19% 0 in
03:54 76.4 °F 31.1 °F 29.84 in SE 0.1 mph 2 mph 19% 0 in
03:59 76.5 °F 31.1 °F 29.84 in Calm     19% 0 in
04:04 76 °F 32 °F 29.84 in Calm     20% 0 in
04:09 75.3 °F 31.4 °F 29.84 in Calm     20% 0 in
04:14 74.6 °F 32.1 °F 29.84 in Calm     21% 0 in
04:19 74.2 °F 31.7 °F 29.84 in Calm     21% 0 in
04:24 73.2 °F 33.2 °F 29.84 in Calm     23% 0 in
04:29 73.1 °F 32 °F 29.84 in Calm     22% 0 in
04:34 73.3 °F 32.1 °F 29.84 in SE 0.5 mph 1.2 mph 22% 0 in
04:39 73.5 °F 31.1 °F 29.84 in Calm     21% 0 in
04:44 73.6 °F 32.4 °F 29.84 in SE 0.2 mph 1.2 mph 22% 0 in
04:49 73.6 °F 31.2 °F 29.84 in East 0.7 mph 1.2 mph 21% 0 in
04:54 73.7 °F 32.5 °F 29.84 in NNE 1 mph 1.2 mph 22% 0 in
04:59 74 °F 31.6 °F 29.84 in NE 0.1 mph 2.3 mph 21% 0 in
05:04 74.1 °F 32.8 °F 29.84 in Calm     22% 0 in
05:09 73.2 °F 30.9 °F 29.84 in NNE 0.2 mph 1.2 mph 21% 0 in
05:14 72.2 °F 31.2 °F 29.84 in NNE 1 mph 1.2 mph 22% 0 in
05:19 72 °F 31 °F 29.84 in NE 0.2 mph 1.2 mph 22% 0 in
05:24 72.1 °F 31.1 °F 29.84 in North 0.2 mph 1.2 mph 22% 0 in
05:29 72.2 °F 31.2 °F 29.84 in North 2 mph 2.3 mph 22% 0 in
05:34 72.4 °F 31.4 °F 29.84 in NNW 1.6 mph 2.3 mph 22% 0 in
05:39 72.6 °F 31.5 °F 29.84 in NNE 0.8 mph 2.3 mph 22% 0 in
05:44 72.6 °F 31.5 °F 29.84 in North 1.9 mph 3.5 mph 22% 0 in
05:49 72.9 °F 31.8 °F 29.84 in NNW 3.2 mph 3.5 mph 22% 0 in
05:54 73 °F 31.9 °F 29.84 in NNE 1 mph 1.2 mph 22% 0 in
05:59 73.2 °F 32.1 °F 29.84 in NNE 1.7 mph 2.3 mph 22% 0 in
06:04 73.4 °F 33.3 °F 29.84 in NE 1 mph 1.2 mph 23% 0 in
06:09 74.6 °F 33.2 °F 29.84 in North 1 mph 1.2 mph 22% 0 in
06:14 75.7 °F 33 °F 29.84 in NNE 1.3 mph 2 mph 21% 0 in
06:19 76.3 °F 33.5 °F 29.84 in Calm     21% 0 in
06:24 77 °F 34.1 °F 29.84 in North 0.1 mph 1 mph 21% 0 in
06:29 77.6 °F 33.3 °F 29.84 in Calm     20% 0 in
06:34 78 °F 32.4 °F 29.84 in NNE 1.3 mph 2.3 mph 19% 0 in
06:39 78.1 °F 32.5 °F 29.84 in NNE 1 mph 1.2 mph 19% 0 in
06:44 78.8 °F 34.3 °F 29.84 in NNE 1 mph 1.2 mph 20% 0 in
06:49 79.4 °F 33.5 °F 29.84 in NNE 3.5 mph 4 mph 19% 0 in
06:54 79.6 °F 33.7 °F 29.84 in NNE 2.7 mph 3.5 mph 19% 0 in
06:59 79.9 °F 33.9 °F 29.84 in NNE 4.6 mph 7 mph 19% 0 in
07:04 80.1 °F 34.1 °F 29.84 in North 2.5 mph 4.6 mph 19% 0 in
07:09 80.4 °F 34.3 °F 29.84 in NNE 3.5 mph 3.5 mph 19% 0 in
07:14 81.1 °F 34.9 °F 29.84 in North 2.8 mph 3.5 mph 19% 0 in
07:19 81.5 °F 33.9 °F 29.84 in North 3.1 mph 4 mph 18% 0 in
07:24 81.7 °F 34.1 °F 29.84 in North 3 mph 3.5 mph 18% 0 in
07:29 82.3 °F 33.1 °F 29.84 in NNE 2.4 mph 5 mph 17% 0 in
07:34 82.9 °F 35 °F 29.84 in North 0.7 mph 3.5 mph 18% 0 in
07:39 83.4 °F 34 °F 29.84 in NNE 1.1 mph 2.3 mph 17% 0 in
07:44 84.1 °F 33 °F 29.84 in NNE 1 mph 1.2 mph 16% 0 in
07:49 84.7 °F 35 °F 29.84 in NNE 1 mph 1.2 mph 17% 0 in
07:54 85.1 °F 32.2 °F 29.84 in Calm   1.2 mph 15% 0 in
07:59 86.5 °F 33.4 °F 29.84 in Calm   1.2 mph 15% 0 in
08:04 87.1 °F 33.8 °F 29.84 in Calm   1.2 mph 15% 0 in
08:09 87.5 °F 34.1 °F 29.84 in SSW 2 mph 2.3 mph 15% 0 in
08:14 87.6 °F 34.2 °F 29.84 in SW 1 mph 3.5 mph 15% 0 in
08:19 87.7 °F 34.3 °F 29.84 in SW 1 mph 2.3 mph 15% 0 in
08:24 88.3 °F 33.1 °F 29.84 in SE 0.7 mph 2 mph 14% 0 in
08:29 87.7 °F 34.3 °F 29.84 in SSW 2.3 mph 3.5 mph 15% 0 in
08:34 88.1 °F 32.9 °F 29.84 in South 1.2 mph 3.5 mph 14% 0 in
08:39 88.4 °F 33.1 °F 29.84 in SE 2.4 mph 3.5 mph 14% 0 in
08:44 88.6 °F 35 °F 29.84 in SSE 2 mph 2.3 mph 15% 0 in
08:49 89.5 °F 35.7 °F 29.84 in SSE 1 mph 1.2 mph 15% 0 in
08:54 89.6 °F 32.2 °F 29.84 in SSW 2.1 mph 3.5 mph 13% 0 in
08:59 89.6 °F 32.2 °F 29.84 in SSE 0.7 mph 2 mph 13% 0 in
09:04 90 °F 30.6 °F 29.84 in SE 2.8 mph 3.5 mph 12% 0 in
09:09 90.3 °F 28.7 °F 29.84 in SE 1.1 mph 2.3 mph 11% 0 in
09:14 91 °F 29.2 °F 29.84 in SE 3.8 mph 6.9 mph 11% 0 in
09:19 90.7 °F 29 °F 29.84 in SSE 3 mph 3.5 mph 11% 0 in
09:24 90.9 °F 31.3 °F 29.84 in SSE 1.4 mph 2.3 mph 12% 0 in
09:29 91.5 °F 27.2 °F 29.84 in SE 3.6 mph 6.9 mph 10% 0 in
09:34 91.3 °F 29.4 °F 29.84 in SSW 3.7 mph 5.8 mph 11% 0 in
09:38 91.2 °F 29.3 °F 29.84 in SSE 1 mph 1.2 mph 11% 0 in
09:49 91.6 °F 24.8 °F 29.84 in SW 1.3 mph 2.3 mph 9% 0 in
09:54 92.4 °F 25.4 °F 29.84 in SE 3.2 mph 8.1 mph 9% 0 in
09:59 92.6 °F 25.5 °F 29.84 in SE 3 mph 3.5 mph 9% 0 in
10:04 93 °F 23 °F 29.84 in SSW 3.6 mph 4 mph 8% 0 in
10:09 93.9 °F 29.1 °F 29.84 in South 2.3 mph 2.3 mph 10% 0 in
10:14 93.2 °F 26 °F 29.84 in SSW 1.1 mph 4.6 mph 9% 0 in
10:19 92.7 °F 28.2 °F 29.84 in SSW 3.3 mph 6.9 mph 10% 0 in
10:24 92.3 °F 27.9 °F 29.84 in WSW 3 mph 3.5 mph 10% 0 in
10:29 92.7 °F 30.5 °F 29.84 in SSW 2 mph 4.6 mph 11% 0 in
10:34 92.7 °F 28.2 °F 29.84 in SSE 2.1 mph 3.5 mph 10% 0 in
10:39 93.3 °F 28.6 °F 29.84 in South 2.8 mph 3.5 mph 10% 0 in
10:44 93.5 °F 26.2 °F 29.84 in South 3.1 mph 4 mph 9% 0 in
10:49 93.3 °F 28.6 °F 29.84 in SW 3.3 mph 6.9 mph 10% 0 in
10:54 93.1 °F 30.8 °F 29.84 in South 3.7 mph 7 mph 11% 0 in
10:59 93.3 °F 28.6 °F 29.84 in SE 4.7 mph 5.8 mph 10% 0 in
11:04 93.4 °F 28.7 °F 29.84 in SSE 1 mph 1.2 mph 10% 0 in
11:09 93.5 °F 28.8 °F 29.84 in South 0.6 mph 7 mph 10% 0 in
11:14 93.5 °F 31.1 °F 29.84 in SSE 3.2 mph 6.9 mph 11% 0 in
11:19 93.9 °F 31.4 °F 29.84 in SSW 2.9 mph 3.5 mph 11% 0 in
11:24 94.1 °F 29.2 °F 29.84 in South 2 mph 5.8 mph 10% 0 in
11:29 94.3 °F 31.7 °F 29.84 in South 2.7 mph 3.5 mph 11% 0 in
11:34 94.8 °F 32.1 °F 29.84 in WSW 2.5 mph 4.6 mph 11% 0 in
11:39 94.4 °F 29.4 °F 29.84 in SSE 2.6 mph 3.5 mph 10% 0 in
11:44 94.8 °F 29.7 °F 29.84 in SSW 1.6 mph 3.5 mph 10% 0 in
11:49 94.8 °F 32.1 °F 29.84 in SW 3.1 mph 9.2 mph 11% 0 in
11:54 95 °F 32.3 °F 29.84 in South 4.4 mph 6.9 mph 11% 0 in
11:59 94.7 °F 32 °F 29.84 in SW 2.9 mph 9.2 mph 11% 0 in
12:04 94.6 °F 31.9 °F 29.84 in SE 4.2 mph 12 mph 11% 0 in
12:09 94.9 °F 32.2 °F 29.84 in SE 1.2 mph 5 mph 11% 0 in
12:14 94.9 °F 29.8 °F 29.84 in SSE 4.7 mph 5.8 mph 10% 0 in
12:19 94.8 °F 32.1 °F 29.84 in South 1 mph 1.2 mph 11% 0 in
12:24 95.4 °F 32.6 °F 29.84 in SSW 2.7 mph 2.3 mph 11% 0 in
12:29 95.4 °F 32.6 °F 29.84 in SE 0.9 mph 3.5 mph 11% 0 in
12:34 96.2 °F 33.2 °F 29.84 in SE 3.4 mph 6.9 mph 11% 0 in
12:39 95.9 °F 32.9 °F 29.84 in SSW 4 mph 5.8 mph 11% 0 in
12:44 95.4 °F 32.6 °F 29.84 in SW 8.1 mph 10.4 mph 11% 0 in
12:49 95.6 °F 32.7 °F 29.84 in SE 2.3 mph 5 mph 11% 0 in
12:54 96 °F 33 °F 29.84 in SSW 5.6 mph 9 mph 11% 0 in
12:59 96.1 °F 33.1 °F 29.84 in West 3.3 mph 4.6 mph 11% 0 in
13:04 95.7 °F 32.8 °F 29.84 in SSW 3.1 mph 6.9 mph 11% 0 in
13:09 96.1 °F 33.1 °F 29.84 in SSW 6 mph 6 mph 11% 0 in
13:14 96 °F 30.7 °F 29.84 in SE 6 mph 6.9 mph 10% 0 in
13:19 96.2 °F 30.8 °F 29.84 in SSE 3 mph 6.9 mph 10% 0 in
13:24 95.9 °F 30.6 °F 29.84 in WSW 3.2 mph 5 mph 10% 0 in
13:29 96.2 °F 30.8 °F 29.84 in SE 2.7 mph 8.1 mph 10% 0 in
13:34 96.6 °F 31.1 °F 29.84 in SSW 3.1 mph 8.1 mph 10% 0 in
13:39 96.3 °F 30.9 °F 29.84 in South 6.8 mph 10.4 mph 10% 0 in
13:44 96.3 °F 28.3 °F 29.84 in ESE 3.4 mph 5.8 mph 9% 0 in
13:49 96.6 °F 25.7 °F 29.84 in South 4.2 mph 4.6 mph 8% 0 in
13:54 96.7 °F 25.7 °F 29.84 in SSE 5 mph 4.6 mph 8% 0 in
13:59 97 °F 25.9 °F 29.84 in SSW 3.1 mph 3.5 mph 8% 0 in
14:04 96.8 °F 25.8 °F 29.84 in South 5 mph 4.6 mph 8% 0 in
14:09 96.6 °F 28.5 °F 29.84 in SE 1.4 mph 3.5 mph 9% 0 in
14:14 97.2 °F 29 °F 29.84 in South 1 mph 1.2 mph 9% 0 in
14:19 98 °F 26.7 °F 29.84 in SW 3.3 mph 8 mph 8% 0 in
14:24 97.4 °F 26.2 °F 29.84 in SW 2.6 mph 6.9 mph 8% 0 in
14:29 96.9 °F 25.9 °F 29.84 in SW 4.2 mph 6.9 mph 8% 0 in
14:34 97.5 °F 26.3 °F 29.84 in SW 0.1 mph 3.5 mph 8% 0 in
14:39 97.6 °F 26.4 °F 29.84 in SSW 5 mph 5.8 mph 8% 0 in
14:44 97.9 °F 26.6 °F 29.84 in SSE 3.8 mph 10.4 mph 8% 0 in
14:49 97.6 °F 26.4 °F 29.84 in Calm   1.2 mph 8% 0 in
14:54 98.4 °F 27 °F 29.84 in SW 2 mph 9 mph 8% 0 in
14:59 98.2 °F 23.6 °F 29.84 in SW 1.1 mph 2.3 mph 7% 0 in
15:04 97.9 °F 26.6 °F 29.84 in SSE 6.3 mph 6.9 mph 8% 0 in
15:09 98.2 °F 26.8 °F 29.84 in SE 1 mph 1.2 mph 8% 0 in
15:14 98.4 °F 23.8 °F 29.84 in SE 2.7 mph 6.9 mph 7% 0 in
15:19 98.4 °F 23.8 °F 29.84 in SSW 0.5 mph 1.2 mph 7% 0 in
15:24 99 °F 24.2 °F 29.84 in SSW 2.8 mph 5.8 mph 7% 0 in
15:29 98.2 °F 20 °F 29.84 in SW 2.7 mph 5.8 mph 6% 0 in
15:34 98.4 °F 20.1 °F 29.84 in South 2 mph 2.3 mph 6% 0 in
15:39 98.4 °F 20.1 °F 29.84 in SSE 1.8 mph 8.1 mph 6% 0 in
15:44 98.2 °F 20 °F 29.84 in SSE 2.8 mph 6.9 mph 6% 0 in
15:49 97.8 °F 19.7 °F 29.84 in SSW 1.9 mph 6.9 mph 6% 0 in
15:54 98 °F 15.6 °F 29.84 in SE 0.6 mph 1.2 mph 5% 0 in
15:59 98.1 °F 19.9 °F 29.84 in SSW 2.8 mph 5.8 mph 6% 0 in
16:04 97.8 °F 10.4 °F 29.84 in SW 1.4 mph 4 mph 4% 0 in
16:09 97.8 °F 15.4 °F 29.84 in SW 5.5 mph 6 mph 5% 0 in
16:14 97.2 °F 15 °F 29.84 in SE 1.7 mph 2.3 mph 5% 0 in
16:19 97.3 °F 15.1 °F 29.84 in SSW 2.5 mph 3.5 mph 5% 0 in
16:24 97.4 °F 15.2 °F 29.84 in SSW 4.3 mph 5.8 mph 5% 0 in
16:29 97.2 °F 15 °F 29.84 in SSW 0.4 mph 1.2 mph 5% 0 in
16:34 97.3 °F 10 °F 29.84 in South 4 mph 4.6 mph 4% 0 in
16:39 96.8 °F 9.7 °F 29.84 in SSW 4 mph 6.9 mph 4% 0 in
16:44 96.4 °F 3.1 °F 29.84 in South 3.6 mph 5.8 mph 3% 0 in
16:49 96.3 °F 14.4 °F 29.84 in SE 0.4 mph 1.2 mph 5% 0 in
Anthen North Phoenix Weather
Compliments of Weather Underground - 2 mb